Location: ????????
(55.0559°N, 39.1270°E)
Time: 07:52:50
(UTC+00:00)

NOSS 3-1 (C) - Pass Details

Date: 15 November 2025
Orbit: 619 x 1583 km, 63.4° (Epoch: 01 December)

Event Time Altitude Azimuth Distance (km) Brightness Sun altitude
Exits shadow 02:50:30 29° 289° (WNW) 1,467 3.9 -17.6°
Maximum altitude 02:52:53 46° 343° (NNW) 1,180 3.8 -17.2°
Drops below altitude 10° 02:59:16 10° 56° (NE) 2,890 6.6 -16.3°
Sets 03:02:24 0° 62° (ENE) 4,014 7.6 -15.9°
